Location: *
(48.4333°N, 5.0333°W)
Time: 19:03:17
(UTC+00:00)

LilacSat-2 - Pass Details

Date: 27 October 2021
Orbit: 511 x 532 km, 97.5° (Epoch: 29 November)

Event Time Altitude Azimuth Distance (km) Brightness Sun altitude
Rises 05:27:08 0° 25° (NNE) 2,635 ? -15.7°
Reaches altitude 10° 05:29:34 10° 40° (NE) 1,744 ? -15.3°
Maximum altitude 05:32:37 23° 94° (E) 1,125 ? -14.8°
Drops below altitude 10° 05:35:38 10° 148° (SSE) 1,735 ? -14.3°
Sets 05:38:03 0° 163° (SSE) 2,618 ? -13.9°
